Location: Harbor View
(36.2448°N, 86.5797°W)
Time: 09:25:27
(UTC+00:00)

IRS-1C Rocket - Pass Details

Date: 29 October 2020
Orbit: 800 x 806 km, 99.0° (Epoch: 04 December)

Event Time Altitude Azimuth Distance (km) Brightness Sun altitude
Rises 23:29:48 0° 147° (SSE) 3,300 7.1 -8.1°
Reaches altitude 10° 23:32:13 10° 141° (SE) 2,374 6.3 -8.6°
Maximum altitude 23:37:09 43° 71° (ENE) 1,115 4.4 -9.6°
Drops below altitude 10° 23:42:07 10° 1° (N) 2,391 6.5 -10.5°
Sets 23:44:33 0° 355° (N) 3,326 7.3 -11.0°
